Regional Weather Roundup
Issued by NWS

Home | Current Version | Previous Version | Text Only | Print | Product List | Glossary Off
Versions: 1 2 3 4 5 6 7 8 9 10 11 12 13 14 15 16 17 18 19 20 21 22 23 24 25 26 27 28 29 30 31 32 33 34 35 36 37 38 39 40 41 42 43 44 45 46 47 48 49 50

000
ASUS43 KTOP 180259
RWRKS

WEATHER ROUNDUP FOR KANSAS
NATIONAL WEATHER SERVICE GOODLAND KS
1000 PM CDT TUE OCT 17 2017

NOTE:  "FAIR" INDICATES FEW OR NO CLOUDS BELOW 12,000 FEET WITH NO
SIGNIFICANT WEATHER AND/OR OBSTRUCTIONS TO VISIBILITY.

KSZ001>006-013>018-027>032-041>047-180400-
NORTHWEST KANSAS

CITY           SKY/WX    TMP DP  RH WIND       PRES   REMARKS
GOODLAND       CLEAR     54  30  40 S12       30.03F
HAYS           CLEAR     59  43  55 S12       30.02S
HILL CITY      CLEAR     54  40  59 SW8       30.02R
RUSSELL        CLEAR     60  45  57 S15       30.01R
$$

KSZ061>065-074>080-084>089-180400-
SOUTHWEST KANSAS

CITY           SKY/WX    TMP DP  RH WIND       PRES   REMARKS
DODGE CITY     CLEAR     58  41  53 S13       30.05S
ELKHART          N/A     60  38  44 SW5         N/A
GARDEN CITY    CLOUDY    58  41  53 SE10      30.03S
GREAT BEND     CLEAR     59  43  55 S12       30.04S
LIBERAL        CLEAR     57  44  62 SE9       30.04R
$$

KSZ066>073-081>083-090>101-180400-
SOUTHEAST KANSAS

CITY           SKY/WX    TMP DP  RH WIND       PRES   REMARKS
CHANUTE        CLEAR     53  46  77 SE8       30.13R
COFFEYVILLE    CLEAR     55  46  71 S7        30.13S
HUTCHINSON     CLEAR     59  47  64 S10       30.06S
MEDICINE LODGE   N/A     59  42  53 MISG      30.07S
NEWTON         CLEAR     56  45  66 S9        30.09R
PARSONS        CLEAR     57  45  64 S5        30.15R
WICHITA INTL   CLEAR     57  47  69 S13       30.08S
WICHITA JABRA  CLEAR     56  47  71 S9        30.08S
WICHITA MCCONL CLEAR     57  45  64 S9        30.09R
WINFIELD       CLEAR     56  47  71 SE7       30.12R
$$

KSZ007>012-019>026-033>040-048>060-102>105-180400-
NORTHEAST KANSAS

CITY           SKY/WX    TMP DP  RH WIND       PRES   REMARKS
CONCORDIA      CLEAR     62  46  55 S16       30.01R
EMPORIA        CLEAR     53  45  74 S9        30.10R
LAWRENCE       CLEAR     59  48  67 S9        30.09S
MANHATTAN      CLEAR     60  47  61 S9        30.05R
OLATHE IND     CLEAR     56  47  71 S9        30.11R
OLATHE EXE     CLEAR     56  46  69 S8        30.11R
SALINA         CLEAR     60  48  64 S9        30.04S
TOPEKA BILLARD CLEAR     60  49  66 S8        30.08R
TOPEKA FORBES  CLEAR     59  48  67 S8        30.08R
$$



USA.gov is the U.S. government's official web portal to all federal, state and local government web resources and services.